timestamp,surface_pressure_avg,surface_temp_avg,battery_voltage,lat,long
2020-06-08 00:09:01+00:00,379.8162,8.0,12.65,47.84626,-54.09684
2020-06-08 00:19:01+00:00,383.6945,8.29,12.65,47.84626,-54.09684
2020-06-08 00:29:01+00:00,381.5062,7.99,12.65,47.84626,-54.09684
2020-06-08 00:39:01+00:00,385.6513,8.47,12.65,47.84626,-54.09684
2020-06-08 00:49:01+00:00,388.3296,8.7,12.65,47.84626,-54.09684
2020-06-08 00:59:01+00:00,388.713,8.83,12.65,47.84626,-54.09684
2020-06-08 01:09:01+00:00,385.2596,8.89,12.65,47.84626,-54.09684
2020-06-08 01:19:01+00:00,384.298,8.8,12.65,47.84626,-54.09684
2020-06-08 01:29:01+00:00,390.4413,8.52,12.65,47.84626,-54.09684
2020-06-08 01:39:01+00:00,388.9796,8.5,12.65,47.84626,-54.09684
2020-06-08 01:49:01+00:00,391.1412,8.59,12.65,47.84626,-54.09684
2020-06-08 01:59:01+00:00,394.8413,8.62,12.65,47.84626,-54.09684
2020-06-08 02:09:01+00:00,390.3895,8.69,12.65,47.84626,-54.09684
2020-06-08 02:19:01+00:00,385.5696,8.6,12.65,47.84626,-54.09684
2020-06-08 02:29:01+00:00,379.3297,8.59,12.65,47.84626,-54.09684
2020-06-08 02:39:01+00:00,377.8646,7.88,12.65,47.84626,-54.09684
2020-06-08 02:49:01+00:00,376.8129,7.55,12.65,47.84626,-54.09684
2020-06-08 02:59:01+00:00,366.0479,7.73,12.65,47.84626,-54.09684
2020-06-08 03:09:01+00:00,358.5463,7.8,12.65,47.84626,-54.09684
2020-06-08 03:19:01+00:00,353.23800000000006,7.8,12.65,47.84626,-54.09684
2020-06-08 03:29:01+00:00,347.1997,7.8,12.65,47.84626,-54.09684
2020-06-08 03:39:01+00:00,334.098,7.8,12.65,47.84626,-54.09684
2020-06-08 03:49:01+00:00,322.763,7.79,12.65,47.84626,-54.09684
2020-06-08 03:59:01+00:00,318.2913,7.79,12.65,47.84626,-54.09684
2020-06-08 04:09:01+00:00,303.6213,7.8,12.65,47.84626,-54.09684
2020-06-08 04:19:01+00:00,289.8181,7.8,12.65,47.84626,-54.09684
2020-06-08 04:29:01+00:00,282.1998,7.8,12.65,47.84626,-54.09684
2020-06-08 04:39:01+00:00,275.7497,7.8,12.65,47.84626,-54.09684
2020-06-08 04:49:01+00:00,259.5165,7.8,12.65,47.84626,-54.09684
2020-06-08 04:59:01+00:00,246.4114,7.8,12.65,47.84626,-54.09684
2020-06-08 05:09:01+00:00,245.0181,7.8,12.65,47.84626,-54.09684
2020-06-08 05:19:01+00:00,237.6747,7.8,12.65,47.84626,-54.09684
2020-06-08 05:29:01+00:00,224.3864,7.8,12.65,47.84626,-54.09684
2020-06-08 05:39:01+00:00,218.7381,7.8,12.65,47.84626,-54.09684
2020-06-08 05:49:01+00:00,216.3414,7.8,12.65,47.84626,-54.09684
2020-06-08 05:59:01+00:00,206.8398,7.8,12.65,47.84626,-54.09684
2020-06-08 06:09:01+00:00,199.8498,7.8,12.65,47.84626,-54.09684
2020-06-08 06:19:01+00:00,198.7814,7.7,12.57,47.84626,-54.09684
2020-06-08 06:29:01+00:00,195.9597,7.74,12.57,47.84626,-54.09684
2020-06-08 06:39:01+00:00,192.2298,7.8,12.57,47.84626,-54.09684
2020-06-08 06:49:01+00:00,191.3131,7.7,12.57,47.84626,-54.09684
2020-06-08 06:59:01+00:00,187.8081,7.7,12.57,47.84626,-54.09684
2020-06-08 07:09:01+00:00,186.3748,7.7,12.57,47.84626,-54.09684
2020-06-08 07:19:01+00:00,189.2031,7.7,12.57,47.84626,-54.09684
2020-06-08 07:29:01+00:00,193.8348,7.68,12.57,47.84626,-54.09684
2020-06-08 07:39:01+00:00,195.9781,7.69,12.57,47.84626,-54.09684
2020-06-08 07:49:01+00:00,197.0731,7.64,12.57,47.84626,-54.09684
2020-06-08 07:59:01+00:00,199.8964,7.63,12.57,47.84626,-54.09684
2020-06-08 08:09:01+00:00,202.6248,7.67,12.57,47.84626,-54.09684
2020-06-08 08:19:01+00:00,205.8948,7.7,12.57,47.84626,-54.09684
2020-06-08 08:29:01+00:00,211.5614,7.7,12.57,47.84626,-54.09684
2020-06-08 08:39:01+00:00,215.3164,7.7,12.57,47.84626,-54.09684
2020-06-08 08:49:01+00:00,213.6631,7.7,12.57,47.84626,-54.09684
2020-06-08 08:59:01+00:00,213.1231,7.7,12.57,47.84626,-54.09684
2020-06-08 09:09:01+00:00,217.4864,7.7,12.57,47.84626,-54.09684
2020-06-08 09:19:01+00:00,218.7381,7.72,12.57,47.84626,-54.09684
2020-06-08 09:29:01+00:00,221.0081,7.7,12.57,47.84626,-54.09684
2020-06-08 09:39:01+00:00,226.7697,7.7,12.57,47.84626,-54.09684
2020-06-08 09:49:01+00:00,232.3731,7.7,12.57,47.84626,-54.09684
2020-06-08 09:59:01+00:00,233.8948,7.7,12.57,47.84626,-54.09684
2020-06-08 10:09:01+00:00,236.8948,7.7,12.57,47.84626,-54.09684
2020-06-08 10:19:01+00:00,240.9381,7.7,12.65,47.84626,-54.09684
2020-06-08 10:29:01+00:00,247.7765,7.7,12.65,47.84626,-54.09684
2020-06-08 10:39:01+00:00,255.0747,7.7,12.65,47.84626,-54.09684
2020-06-08 10:49:01+00:00,260.4481,7.7,12.65,47.84626,-54.09684
2020-06-08 10:59:01+00:00,264.5948,7.5,12.65,47.84626,-54.09684
2020-06-08 11:09:01+00:00,270.6781,7.5,12.65,47.84626,-54.09684
2020-06-08 11:19:01+00:00,277.123,7.5,12.65,47.84626,-54.09684
2020-06-08 11:29:01+00:00,284.1198,7.42,12.65,47.84626,-54.09684
2020-06-08 11:39:01+00:00,291.2513,7.4,12.65,47.84626,-54.09684
2020-06-08 11:49:01+00:00,300.0114,7.3,12.65,47.84626,-54.09684
2020-06-08 11:59:01+00:00,312.2963,7.3,12.65,47.84626,-54.09684
2020-06-08 12:09:01+00:00,318.783,7.4,12.65,47.84626,-54.09684
2020-06-08 12:19:01+00:00,323.613,7.32,12.89,47.84626,-54.09684
2020-06-08 12:29:01+00:00,330.4563,7.3,12.89,47.84626,-54.09684
2020-06-08 12:39:01+00:00,334.43300000000005,7.2,12.89,47.84626,-54.09684
2020-06-08 12:49:01+00:00,336.9779,7.1,12.89,47.84626,-54.09684
2020-06-08 12:59:01+00:00,340.5563,7.03,12.89,47.84626,-54.09684
2020-06-08 13:09:01+00:00,347.9763,7.0,12.89,47.84626,-54.09684
2020-06-08 13:19:01+00:00,349.2313,7.0,13.05,47.84626,-54.09684
2020-06-08 13:29:01+00:00,345.4847,6.97,13.05,47.84626,-54.09684
2020-06-08 13:39:01+00:00,347.6663,6.88,13.05,47.84626,-54.09684
2020-06-08 13:49:01+00:00,347.4363,6.9,13.05,47.84626,-54.09684
2020-06-08 13:59:01+00:00,343.2447,7.0,13.05,47.84626,-54.09684
2020-06-08 14:09:01+00:00,344.1496,7.0,13.05,47.84626,-54.09684
2020-06-08 14:19:01+00:00,344.0363,6.94,13.05,47.84626,-54.09684
2020-06-08 14:29:01+00:00,340.4379,7.1,13.05,47.84626,-54.09684
2020-06-08 14:39:01+00:00,334.1829,7.3,13.05,47.84626,-54.09684
2020-06-08 14:49:01+00:00,335.5046,7.38,13.05,47.84626,-54.09684
2020-06-08 14:59:01+00:00,338.3713,7.32,13.05,47.84626,-54.09684
2020-06-08 15:09:01+00:00,333.5096,7.39,13.05,47.84626,-54.09684
2020-06-08 15:19:01+00:00,328.7747,7.4,13.13,47.84626,-54.09684
2020-06-08 15:29:01+00:00,330.1812,7.4,13.13,47.84626,-54.09684
2020-06-08 15:39:01+00:00,322.5397,7.41,13.13,47.84626,-54.09684
2020-06-08 15:49:01+00:00,316.9896,7.5,13.13,47.84626,-54.09684
2020-06-08 15:59:01+00:00,304.1263,7.5,13.13,47.84626,-54.09684
2020-06-08 16:09:01+00:00,299.623,7.5,13.13,47.84626,-54.09684
2020-06-08 16:19:01+00:00,292.0947,7.2,13.21,47.84626,-54.09684
2020-06-08 16:29:01+00:00,284.4431,7.32,13.21,47.84626,-54.09684
2020-06-08 16:39:01+00:00,271.5747,7.43,13.21,47.84626,-54.09684
2020-06-08 16:49:01+00:00,263.5548,7.49,13.21,47.84626,-54.09684
2020-06-08 16:59:01+00:00,254.8597,7.4,13.21,47.84626,-54.09684
2020-06-08 17:09:01+00:00,245.6881,7.38,13.21,47.84626,-54.09684
2020-06-08 17:19:01+00:00,233.6364,7.39,13.29,47.84626,-54.09684
2020-06-08 17:29:01+00:00,224.1565,7.43,13.29,47.84626,-54.09684
2020-06-08 17:39:01+00:00,219.1898,7.47,13.29,47.84626,-54.09684
2020-06-08 17:49:01+00:00,212.4864,7.4,13.29,47.84626,-54.09684
2020-06-08 17:59:01+00:00,203.7064,7.4,13.29,47.84626,-54.09684
2020-06-08 18:09:01+00:00,198.0565,7.4,13.29,47.84626,-54.09684
2020-06-08 18:19:01+00:00,198.7682,7.4,13.37,47.84626,-54.09684
2020-06-08 18:29:01+00:00,195.2598,7.4,13.37,47.84626,-54.09684
2020-06-08 18:39:01+00:00,189.2531,7.4,13.37,47.84626,-54.09684
2020-06-08 18:49:01+00:00,190.6348,7.4,13.37,47.84626,-54.09684
2020-06-08 18:59:01+00:00,193.9131,7.4,13.37,47.84626,-54.09684
2020-06-08 19:09:01+00:00,191.1115,7.37,13.37,47.84626,-54.09684
2020-06-08 19:19:01+00:00,188.8798,7.3,13.37,47.84626,-54.09684
2020-06-08 19:29:01+00:00,196.2281,7.3,13.37,47.84626,-54.09684
2020-06-08 19:39:01+00:00,201.9914,7.3,13.37,47.84626,-54.09684
2020-06-08 19:49:01+00:00,199.6048,7.33,13.37,47.84626,-54.09684
2020-06-08 19:59:01+00:00,200.0898,7.31,13.37,47.84626,-54.09684
2020-06-08 20:09:01+00:00,204.9415,7.35,13.37,47.84626,-54.09684
2020-06-08 20:19:01+00:00,207.4231,7.31,13.29,47.84626,-54.09684
2020-06-08 20:29:01+00:00,208.9981,7.3,13.29,47.84626,-54.09684
2020-06-08 20:39:01+00:00,214.0364,7.3,13.29,47.84626,-54.09684
2020-06-08 20:49:01+00:00,220.5181,7.28,13.29,47.84626,-54.09684
2020-06-08 20:59:01+00:00,224.5114,7.3,13.29,47.84626,-54.09684
2020-06-08 21:09:01+00:00,231.1081,7.34,13.29,47.84626,-54.09684
2020-06-08 21:19:01+00:00,239.3181,7.46,13.21,47.84626,-54.09684
2020-06-08 21:29:01+00:00,243.3831,7.59,13.21,47.84626,-54.09684
2020-06-08 21:39:01+00:00,243.8514,7.7,13.21,47.84626,-54.09684
2020-06-08 21:49:01+00:00,246.3831,7.7,13.21,47.84626,-54.09684
2020-06-08 21:59:01+00:00,251.3681,7.69,13.21,47.84626,-54.09684
2020-06-08 22:09:01+00:00,252.0614,7.7,13.21,47.84626,-54.09684
2020-06-08 22:19:01+00:00,249.7747,7.78,12.97,47.84626,-54.09684
2020-06-08 22:29:01+00:00,256.1881,7.8,12.97,47.84626,-54.09684
2020-06-08 22:39:01+00:00,265.5314,7.8,12.97,47.84626,-54.09684
2020-06-08 22:49:01+00:00,271.5397,7.8,12.97,47.84626,-54.09684
2020-06-08 22:59:01+00:00,275.9896,7.8,12.97,47.84626,-54.09684
2020-06-08 23:09:01+00:00,287.5831,7.8,12.97,47.84626,-54.09684
2020-06-08 23:19:01+00:00,297.8347,7.82,12.81,47.84626,-54.09684
2020-06-08 23:29:01+00:00,306.3279,7.88,12.81,47.84626,-54.09684
2020-06-08 23:39:01+00:00,313.1547,7.9,12.81,47.84626,-54.09684
2020-06-08 23:49:01+00:00,320.2963,7.8,12.81,47.84626,-54.09684
2020-06-08 23:59:01+00:00,324.5414,7.8,12.81,47.84626,-54.09684
